Location: Alladorf
(49.9620°N, 11.3790°E)
Time: 20:26:11
(UTC+00:00)

RESURS DK-1 - Pass Details

Date: 29 November 2020
Orbit: 557 x 560 km, 69.9° (Epoch: 25 January)

Event Time Altitude Azimuth Distance (km) Brightness Sun altitude
Rises 06:05:18 0° 247° (WSW) 2,744 5.5 -6.9°
Reaches altitude 10° 06:07:52 10° 262° (W) 1,853 4.5 -6.5°
Maximum altitude 06:11:12 23° 316° (NW) 1,223 3.5 -6.1°
Drops below altitude 10° 06:14:33 10° 9° (N) 1,862 4.8 -5.6°
Sets 06:17:09 0° 24° (NNE) 2,762 5.9 -5.2°
